Estació municipal de El Brull (Osona, P.N. del Montseny)

Consulta les dades en temps real de l'estació municipal de El Brull





Hora UTC 09:30
Temperatura 13.9 ºC
Humitat 79.4 %
Pressió 1014.3 hPa
Pluja 0.0 mm
Velocitat vent 6.1 km/h
Direcció vent SSW
Radiació solar 275.4 W/m²

Webcam

Dades diàries 2026-05-09



Hora UTC (hivern +1h; estiu +2h)
Temperatura (ºC) Humitat (%) Pressió (hPa) Velocitat vent (km/h) Precipitació (mm) Radiació solar (W/m²)
Hora UTC Aire Humitat Pressió Vel. Dir. Vel. Max Dir. Intent. màx 5 min. Rad. Sol.
00:10 9.1 86.3 1016.0 7.8 SE 14.9 SE 0.0 0.0
00:20 9.0 86.1 1016.0 7.5 SE 12.0 SSE 0.0 0.0
00:30 8.9 86.8 1015.9 6.4 SE 9.8 SE 0.0 0.0
00:40 9.1 86.8 1015.9 6.1 SSE 11.1 SE 0.0 0.0
00:50 9.1 86.4 1015.9 2.9 S 5.8 SSW 0.0 0.0
01:00 9.3 86.5 1015.9 2.7 SE 4.5 SSE 0.0 0.0
01:10 9.5 86.1 1015.9 3.0 SE 7.9 SE 0.0 0.0
01:20 9.8 84.6 1015.7 5.6 SE 9.5 SE 0.0 0.0
01:30 10.0 84.3 1015.6 4.5 SE 10.6 SE 0.0 0.0
01:40 10.2 83.5 1015.6 4.5 SE 8.7 SE 0.0 0.0
01:50 10.3 83.0 1015.5 3.6 SE 10.0 SE 0.0 0.0
02:00 10.4 82.9 1015.5 0.7 S 3.6 ESE 0.0 0.0
02:10 10.5 82.3 1015.3 0.4 SE 1.5 S 0.0 0.0
02:20 10.4 83.0 1015.2 0.8 ESE 5.4 ESE 0.0 0.0
02:30 10.2 83.3 1015.0 2.3 NE 4.7 NE 0.0 0.0
02:40 9.9 84.1 1014.9 2.2 NE 5.4 NE 0.0 0.0
02:50 10.0 83.1 1014.9 0.8 ESE 2.8 E 0.0 0.0
03:00 10.0 82.5 1014.9 1.1 NE 3.5 N 0.0 0.0
03:10 9.7 83.0 1014.8 3.4 NNW 5.8 NNW 0.0 0.0
03:20 8.9 85.7 1014.8 4.3 N 6.4 NNW 0.0 0.0
03:30 8.6 87.5 1014.8 1.1 N 4.4 N 0.0 0.0
03:40 8.7 88.1 1014.8 0.7 S 1.8 S 0.0 0.0
03:50 9.1 87.6 1014.9 1.1 SW 3.3 WSW 0.0 0.0
04:00 9.3 86.7 1014.7 0.6 SE 2.0 S 0.0 0.0
04:10 9.4 86.2 1014.7 2.2 ESE 4.5 SE 0.0 0.0
04:20 9.6 85.1 1014.7 1.5 ESE 4.6 SE 0.0 0.1
04:30 9.8 84.6 1014.7 2.7 SE 7.6 SE 0.0 0.7
04:40 10.1 83.9 1014.8 3.2 SE 8.6 SE 0.0 0.9
04:50 10.2 82.9 1014.8 1.8 E 4.6 SE 0.0 0.0
05:00 10.2 82.9 1014.7 0.8 ENE 3.5 NE 0.0 11.7
05:10 10.2 83.5 1014.7 1.8 N 3.6 NNW 0.0 14.3
05:20 10.2 84.2 1014.7 1.7 NNE 4.8 NE 0.0 17.8
05:30 10.4 83.5 1014.8 0.6 ENE 2.5 ESE 0.0 17.8
05:40 10.7 82.8 1014.8 1.3 ENE 4.5 E 0.0 27.4
05:50 10.8 83.0 1014.8 1.0 ENE 2.9 ENE 0.0 29.3
06:00 11.0 82.7 1014.7 1.2 ENE 4.1 ENE 0.0 39.1
06:10 11.1 83.3 1014.7 3.6 NNW 8.3 NNW 0.0 56.5
06:20 10.8 83.6 1014.8 5.0 NNW 8.9 NNW 0.0 94.0
06:30 10.8 84.4 1014.7 3.3 N 8.1 NNW 0.0 146.2
06:40 11.2 84.5 1014.6 1.5 N 5.8 N 0.0 203.7
06:50 11.9 82.5 1014.6 0.4 N 4.6 NW 0.0 202.4
07:00 11.8 82.2 1014.6 2.1 NNW 4.2 W 0.0 224.5
07:10 12.2 82.5 1014.5 0.8 N 3.1 N 0.0 241.2
07:20 13.1 78.7 1014.5 1.6 W 4.7 W 0.0 245.1
07:30 12.7 80.8 1014.5 1.8 WNW 5.2 NW 0.0 278.8
07:40 13.3 79.3 1014.5 2.9 SSW 8.6 SSW 0.0 318.8
07:50 13.6 76.6 1014.2 1.4 W 4.7 WSW 0.0 364.9
08:00 14.1 77.6 1014.3 1.8 NNE 5.5 N 0.0 361.3
08:10 14.5 76.3 1014.0 2.6 NNW 7.6 NNW 0.0 368.9
08:20 14.5 75.9 1013.9 1.9 NW 5.8 NNW 0.0 436.2
08:30 14.7 75.6 1013.8 2.4 NNW 7.5 NNW 0.0 409.7
08:40 14.4 75.6 1013.9 5.2 W 10.9 W 0.0 333.1
08:50 14.1 76.6 1014.0 7.0 WSW 12.2 SW 0.0 267.7
09:00 14.1 77.1 1014.1 5.8 W 11.9 WSW 0.0 229.2
09:10 14.0 77.3 1014.0 3.9 WSW 9.5 WSW 0.0 174.3
09:20 14.1 76.7 1014.2 4.0 SW 12.9 S 0.0 204.0
09:30 13.9 79.4 1014.3 6.1 SSW 12.6 S 0.0 275.4
Màxima 14.7 88.1 1016.0 7.8 SE 14.9 SE 0.0 436.2
Mínima 8.6 75.6 1013.8
Total 0.0